Location: Unspecified
(57.6483°N, 3.3184°W)
Time: 08:31:40
(UTC+01:00)

NO-84 - Visible Passes

Search period start: 11 May 2021 00:00
Search period end: 21 May 2021 00:00
Orbit: 312 x 421 km, 55.0° (Epoch: 04 May)

Date Brightness Start Highest point End Pass type
(mag) Time Alt. Az. Time Alt. Az. Time Alt. Az.
12 May ? 03:10:58 11° S 03:12:24 15° SE 03:14:14 10° ESE visible
13 May ? 03:40:34 11° SSW 03:43:03 27° SSE 03:45:47 10° E visible
14 May ? 02:38:15 15° SSE 02:39:02 17° SE 02:41:07 10° ESE visible
15 May ? 03:07:40 15° SSW 03:09:38 30° SSE 03:12:26 10° E visible
16 May ? 02:05:11 19° SSE 02:05:30 19° SSE 02:07:46 10° E visible
16 May ? 03:37:25 10° WSW 03:40:20 45° SSE 03:43:23 10° E visible
17 May ? 02:34:25 19° SSW 02:36:02 33° SSE 02:38:53 10° E visible
18 May ? 01:31:44 21° SSE 01:31:48 21° SSE 01:34:13 10° E visible
18 May ? 03:03:46 10° WSW 03:06:40 47° S 03:09:43 10° E visible
19 May ? 00:28:55 10° ESE 00:28:55 10° ESE 00:28:59 10° ESE visible
19 May ? 02:00:43 20° SW 02:02:17 35° SSE 02:05:10 10° E visible
19 May ? 03:34:22 10° W 03:37:20 51° S 03:40:26 10° ESE visible
20 May ? 00:57:43 23° SSE 00:57:56 24° SSE 01:00:27 10° E visible
20 May ? 02:29:57 10° WSW 02:32:51 49° S 02:35:54 10° E visible
20 May ? 23:54:27 13° SE 23:54:27 13° SE 23:55:21 10° ESE visible
